QPF
0.01 0.01 0.02 0.03 0.02 0.01 0.01 0.01 0.00 0.01 0.02 0.01 0.01 0.01 0.01 0.01 0.02 0.03 0.04 0.04 0.06 0.07 0.09 0.10 0.08 0.09 0.10 0.12 0.15 0.19 0.17 0.16 0.12 0.12 0.09 0.07 0.07 0.08 0.09 0.09 0.09 0.07 0.08
0.00 0.01 0.01 0.02 0.02 0.01 0.01 0.01 0.00 0.00 0.01 0.01 0.01 0.01 0.01 0.03 0.04 0.04 0.03 0.04 0.05 0.06 0.07 0.07 0.07 0.08 0.09 0.10 0.10 0.14 0.15 0.13 0.12 0.11 0.10 0.08 0.08 0.08 0.07 0.08 0.08 0.07 0.08
0.00 0.01 0.01 0.02 0.03 0.01 0.01 0.01 0.00 0.00 0.00 0.01 0.01 0.01 0.01 0.02 0.03 0.03 0.02 0.03 0.04 0.06 0.06 0.06 0.06 0.05 0.08 0.09 0.08 0.12 0.15 0.13 0.13 0.10 0.09 0.08 0.08 0.09 0.08 0.08 0.08 0.09 0.09
0.00 0.01 0.02 0.02 0.02 0.01 0.01 0.01 0.01 0.00 0.00 0.01 0.01 0.01 0.01 0.02 0.03 0.03 0.03 0.03 0.04 0.05 0.05 0.05 0.04 0.03 0.05 0.07 0.07 0.09 0.10 0.14 0.15 0.12 0.07 0.06 0.06 0.09 0.09 0.09 0.09 0.09 0.08
0.01 0.01 0.02 0.02 0.02 0.02 0.01 0.01 0.01 0.00 0.00 0.01 0.01 0.00 0.01 0.03 0.03 0.03 0.03 0.03 0.04 0.07 0.05 0.05 0.04 0.03 0.05 0.05 0.08 0.09 0.14 0.20 0.19 0.13 0.07 0.06 0.06 0.07 0.07 0.09 0.10 0.10 0.11
0.00 0.01 0.02 0.02 0.03 0.03 0.02 0.02 0.01 0.01 0.01 0.01 0.01 0.01 0.02 0.01 0.02 0.02 0.04 0.06 0.07 0.11 0.08 0.06 0.04 0.04 0.05 0.05 0.08 0.09 0.14 0.22 0.22 0.14 0.10 0.08 0.08 0.09 0.07 0.07 0.09 0.11 0.11
0.01 0.00 0.01 0.03 0.03 0.03 0.03 0.03 0.03 0.01 0.01 0.01 0.01 0.02 0.02 0.01 0.01 0.01 0.07 0.16 0.17 0.16 0.12 0.07 0.04 0.04 0.05 0.04 0.06 0.08 0.11 0.14 0.17 0.12 0.09 0.09 0.11 0.11 0.08 0.07 0.07 0.09 0.09
0.02 0.01 0.01 0.01 0.03 0.04 0.03 0.03 0.03 0.02 0.01 0.01 0.01 0.02 0.00 0.01 0.02 0.02 0.07 0.15 0.18 0.16 0.11 0.06 0.05 0.04 0.04 0.04 0.07 0.08 0.10 0.10 0.12 0.11 0.09 0.11 0.15 0.13 0.10 0.08 0.07 0.08 0.09
0.01 0.01 0.01 0.01 0.01 0.03 0.04 0.03 0.02 0.02 0.02 0.01 0.01 0.01 0.01 0.01 0.02 0.03 0.06 0.11 0.13 0.11 0.08 0.06 0.05 0.04 0.03 0.05 0.07 0.08 0.09 0.08 0.09 0.10 0.11 0.11 0.12 0.11 0.11 0.10 0.06 0.06 0.06
0.01 0.00 0.00 0.01 0.02 0.02 0.02 0.02 0.02 0.02 0.02 0.03 0.02 0.01 0.01 0.01 0.03 0.04 0.05 0.09 0.10 0.08 0.06 0.06 0.05 0.05 0.04 0.05 0.06 0.07 0.07 0.05 0.06 0.07 0.07 0.06 0.08 0.10 0.12 0.12 0.07 0.06 0.06
0.01 0.00 0.00 0.01 0.02 0.02 0.02 0.02 0.02 0.02 0.02 0.02 0.02 0.02 0.01 0.01 0.02 0.03 0.05 0.09 0.10 0.08 0.06 0.05 0.05 0.05 0.06 0.06 0.06 0.06 0.05 0.04 0.04 0.04 0.04 0.05 0.08 0.09 0.11 0.12 0.07 0.05 0.05
0.01 0.01 0.00 0.01 0.01 0.01 0.01 0.02 0.01 0.02 0.02 0.02 0.02 0.02 0.01 0.00 0.01 0.03 0.07 0.10 0.10 0.09 0.08 0.08 0.08 0.07 0.07 0.07 0.08 0.06 0.04 0.04 0.04 0.03 0.03 0.04 0.06 0.08 0.09 0.08 0.06 0.04 0.03
0.01 0.01 0.01 0.01 0.01 0.01 0.02 0.02 0.02 0.02 0.02 0.02 0.01 0.01 0.01 0.00 0.01 0.03 0.05 0.07 0.06 0.06 0.06 0.06 0.07 0.07 0.07 0.08 0.06 0.05 0.04 0.04 0.04 0.03 0.03 0.05 0.06 0.07 0.06 0.06 0.05 0.03 0.02
0.01 0.01 0.01 0.01 0.01 0.01 0.01 0.03 0.02 0.01 0.02 0.02 0.02 0.01 0.01 0.01 0.01 0.02 0.04 0.05 0.05 0.06 0.06 0.05 0.05 0.06 0.05 0.07 0.06 0.05 0.05 0.04 0.03 0.03 0.04 0.04 0.05 0.04 0.04 0.04 0.04 0.03 0.02
0.02 0.02 0.02 0.01 0.01 0.01 0.01 0.03 0.03 0.01 0.01 0.01 0.02 0.01 0.02 0.02 0.01 0.01 0.03 0.05 0.06 0.06 0.07 0.07 0.06 0.06 0.06 0.07 0.06 0.05 0.05 0.04 0.03 0.02 0.04 0.04 0.04 0.03 0.02 0.03 0.03 0.03 0.03
0.03 0.05 0.04 0.02 0.02 0.01 0.02 0.03 0.05 0.04 0.01 0.00 0.01 0.01 0.02 0.02 0.02 0.02 0.03 0.05 0.06 0.07 0.08 0.07 0.07 0.06 0.07 0.08 0.07 0.06 0.06 0.04 0.03 0.03 0.03 0.03 0.04 0.03 0.03 0.03 0.04 0.04 0.05
0.04 0.07 0.07 0.04 0.02 0.02 0.02 0.02 0.03 0.04 0.02 0.01 0.00 0.01 0.01 0.01 0.02 0.03 0.02 0.04 0.05 0.07 0.07 0.06 0.06 0.06 0.08 0.09 0.08 0.06 0.05 0.05 0.04 0.03 0.03 0.03 0.03 0.03 0.03 0.04 0.04 0.04 0.06
0.06 0.09 0.08 0.05 0.04 0.03 0.03 0.03 0.03 0.03 0.02 0.01 0.01 0.01 0.01 0.01 0.02 0.03 0.02 0.03 0.05 0.06 0.06 0.06 0.07 0.08 0.09 0.08 0.07 0.05 0.05 0.05 0.04 0.03 0.02 0.02 0.02 0.02 0.02 0.03 0.04 0.05 0.05
0.08 0.08 0.08 0.08 0.07 0.06 0.05 0.04 0.03 0.04 0.03 0.02 0.02 0.02 0.01 0.01 0.00 0.01 0.01 0.02 0.03 0.06 0.06 0.04 0.05 0.06 0.08 0.07 0.06 0.04 0.04 0.04 0.03 0.03 0.03 0.03 0.02 0.01 0.01 0.02 0.04 0.06 0.07
0.08 0.06 0.08 0.06 0.06 0.06 0.05 0.04 0.04 0.03 0.03 0.02 0.02 0.03 0.02 0.01 0.01 0.00 0.01 0.01 0.03 0.05 0.05 0.04 0.03 0.05 0.06 0.07 0.06 0.05 0.04 0.04 0.03 0.02 0.02 0.03 0.02 0.02 0.02 0.02 0.03 0.06 0.08
0.08 0.06 0.06 0.06 0.05 0.05 0.04 0.03 0.03 0.03 0.02 0.03 0.03 0.03 0.03 0.03 0.02 0.01 0.01 0.01 0.03 0.04 0.04 0.04 0.04 0.06 0.05 0.06 0.05 0.04 0.04 0.05 0.05 0.05 0.04 0.03 0.02 0.02 0.01 0.01 0.02 0.02 0.05
0.08 0.08 0.07 0.06 0.05 0.03 0.03 0.03 0.04 0.04 0.03 0.03 0.03 0.03 0.04 0.03 0.04 0.03 0.02 0.01 0.04 0.05 0.04 0.04 0.04 0.05 0.04 0.04 0.04 0.03 0.03 0.03 0.04 0.04 0.04 0.03 0.03 0.02 0.03 0.03 0.03 0.03 0.04
0.10 0.12 0.10 0.06 0.04 0.03 0.03 0.03 0.04 0.05 0.04 0.03 0.02 0.03 0.04 0.04 0.03 0.03 0.03 0.03 0.05 0.05 0.03 0.03 0.03 0.05 0.05 0.04 0.03 0.02 0.02 0.02 0.02 0.03 0.03 0.03 0.03 0.03 0.04 0.04 0.04 0.04 0.06
0.10 0.11 0.09 0.05 0.04 0.03 0.03 0.03 0.04 0.04 0.04 0.03 0.02 0.03 0.03 0.04 0.04 0.04 0.03 0.04 0.05 0.05 0.03 0.02 0.03 0.04 0.04 0.04 0.03 0.02 0.02 0.01 0.01 0.01 0.02 0.02 0.03 0.02 0.03 0.03 0.02 0.02 0.03
0.06 0.05 0.04 0.04 0.04 0.03 0.02 0.03 0.03 0.03 0.03 0.02 0.02 0.02 0.03 0.04 0.05 0.06 0.05 0.05 0.06 0.06 0.05 0.03 0.03 0.04 0.04 0.04 0.03 0.03 0.04 0.03 0.02 0.01 0.01 0.01 0.01 0.01 0.01 0.02 0.02 0.02 0.02
0.04 0.04 0.05 0.04 0.04 0.02 0.02 0.02 0.02 0.02 0.02 0.02 0.02 0.03 0.03 0.03 0.04 0.06 0.08 0.08 0.07 0.07 0.06 0.04 0.04 0.03 0.04 0.04 0.03 0.03 0.03 0.03 0.04 0.03 0.02 0.00 0.00 0.01 0.01 0.01 0.01 0.01 0.01
MSLP
1005.19 1004.61 1004.36 1004.45 1004.77 1005.19 1005.60 1005.90 1006.03 1006.01 1005.89 1005.77 1005.71 1005.76 1005.93 1006.20 1006.50 1006.78 1006.98 1007.11 1007.17 1007.22 1007.32 1007.52 1007.86 1008.33 1008.90 1009.52 1010.13 1010.67 1011.13 1011.50 1011.81 1012.07 1012.33 1012.60 1012.89 1013.19 1013.50 1013.78 1014.06 1014.31 1014.57
1004.74 1004.27 1004.12 1004.27 1004.61 1005.03 1005.41 1005.67 1005.78 1005.76 1005.68 1005.61 1005.62 1005.76 1006.02 1006.34 1006.68 1006.96 1007.15 1007.25 1007.29 1007.32 1007.42 1007.63 1007.98 1008.47 1009.05 1009.67 1010.27 1010.80 1011.25 1011.62 1011.93 1012.22 1012.50 1012.81 1013.13 1013.46 1013.78 1014.08 1014.36 1014.63 1014.90
1004.13 1003.82 1003.80 1004.03 1004.43 1004.86 1005.24 1005.49 1005.60 1005.60 1005.56 1005.55 1005.64 1005.84 1006.14 1006.49 1006.82 1007.08 1007.23 1007.29 1007.29 1007.31 1007.41 1007.63 1008.00 1008.50 1009.10 1009.72 1010.33 1010.86 1011.32 1011.70 1012.04 1012.35 1012.67 1013.01 1013.36 1013.71 1014.05 1014.37 1014.66 1014.94 1015.23
1003.47 1003.36 1003.50 1003.85 1004.32 1004.79 1005.18 1005.44 1005.55 1005.57 1005.56 1005.60 1005.73 1005.96 1006.27 1006.61 1006.91 1007.11 1007.21 1007.22 1007.19 1007.20 1007.30 1007.53 1007.93 1008.45 1009.07 1009.71 1010.33 1010.88 1011.36 1011.77 1012.14 1012.50 1012.85 1013.22 1013.59 1013.96 1014.30 1014.62 1014.93 1015.22 1015.53
1002.95 1003.05 1003.36 1003.84 1004.38 1004.89 1005.29 1005.54 1005.66 1005.68 1005.69 1005.74 1005.88 1006.11 1006.39 1006.69 1006.93 1007.07 1007.12 1007.08 1007.03 1007.03 1007.14 1007.40 1007.82 1008.38 1009.01 1009.68 1010.31 1010.89 1011.40 1011.86 1012.27 1012.66 1013.05 1013.44 1013.82 1014.19 1014.53 1014.84 1015.15 1015.45 1015.78
1002.73 1003.03 1003.50 1004.09 1004.68 1005.21 1005.59 1005.82 1005.91 1005.92 1005.91 1005.94 1006.06 1006.25 1006.48 1006.71 1006.88 1006.97 1006.96 1006.90 1006.85 1006.86 1007.00 1007.29 1007.74 1008.32 1008.98 1009.66 1010.32 1010.93 1011.48 1011.97 1012.43 1012.86 1013.28 1013.68 1014.06 1014.42 1014.74 1015.04 1015.34 1015.65 1015.99
1002.91 1003.37 1003.96 1004.60 1005.21 1005.71 1006.06 1006.24 1006.29 1006.25 1006.19 1006.18 1006.24 1006.37 1006.53 1006.68 1006.79 1006.82 1006.79 1006.72 1006.68 1006.73 1006.91 1007.24 1007.72 1008.32 1009.00 1009.69 1010.37 1011.00 1011.58 1012.12 1012.62 1013.08 1013.53 1013.94 1014.31 1014.65 1014.95 1015.23 1015.51 1015.82 1016.17
1003.48 1004.04 1004.67 1005.32 1005.90 1006.34 1006.62 1006.73 1006.71 1006.61 1006.50 1006.43 1006.42 1006.47 1006.55 1006.62 1006.66 1006.65 1006.60 1006.55 1006.55 1006.65 1006.88 1007.25 1007.77 1008.38 1009.07 1009.77 1010.45 1011.10 1011.71 1012.28 1012.82 1013.32 1013.78 1014.21 1014.58 1014.90 1015.18 1015.45 1015.71 1016.02 1016.37
1004.32 1004.90 1005.52 1006.10 1006.60 1006.95 1007.14 1007.18 1007.10 1006.95 1006.80 1006.67 1006.59 1006.56 1006.55 1006.55 1006.52 1006.48 1006.43 1006.40 1006.45 1006.61 1006.90 1007.32 1007.86 1008.50 1009.18 1009.88 1010.56 1011.22 1011.85 1012.44 1013.01 1013.54 1014.03 1014.47 1014.85 1015.17 1015.45 1015.70 1015.96 1016.26 1016.61
1005.20 1005.74 1006.29 1006.77 1007.16 1007.41 1007.53 1007.51 1007.40 1007.23 1007.05 1006.89 1006.76 1006.66 1006.57 1006.49 1006.40 1006.31 1006.26 1006.27 1006.37 1006.59 1006.94 1007.41 1007.98 1008.63 1009.31 1010.00 1010.68 1011.34 1011.98 1012.60 1013.19 1013.75 1014.26 1014.72 1015.12 1015.45 1015.74 1016.00 1016.27 1016.57 1016.92
1005.93 1006.38 1006.80 1007.16 1007.43 1007.60 1007.67 1007.64 1007.55 1007.41 1007.26 1007.10 1006.94 1006.78 1006.62 1006.45 1006.30 1006.18 1006.11 1006.14 1006.29 1006.57 1006.98 1007.51 1008.12 1008.78 1009.46 1010.15 1010.82 1011.48 1012.12 1012.75 1013.36 1013.94 1014.48 1014.96 1015.38 1015.73 1016.05 1016.34 1016.63 1016.95 1017.30
1006.31 1006.65 1006.93 1007.17 1007.34 1007.46 1007.52 1007.54 1007.53 1007.48 1007.40 1007.28 1007.12 1006.93 1006.70 1006.46 1006.24 1006.07 1005.99 1006.03 1006.22 1006.56 1007.03 1007.61 1008.26 1008.94 1009.64 1010.33 1011.00 1011.65 1012.30 1012.93 1013.54 1014.13 1014.68 1015.18 1015.62 1016.01 1016.36 1016.69 1017.02 1017.37 1017.73
1006.30 1006.50 1006.65 1006.77 1006.88 1006.99 1007.11 1007.23 1007.35 1007.44 1007.47 1007.43 1007.31 1007.09 1006.82 1006.51 1006.22 1005.99 1005.89 1005.95 1006.17 1006.56 1007.09 1007.73 1008.42 1009.15 1009.87 1010.57 1011.25 1011.90 1012.54 1013.17 1013.78 1014.36 1014.90 1015.40 1015.86 1016.27 1016.66 1017.03 1017.41 1017.79 1018.18
1005.91 1005.99 1006.02 1006.06 1006.14 1006.29 1006.50 1006.77 1007.06 1007.31 1007.49 1007.55 1007.46 1007.25 1006.93 1006.56 1006.21 1005.94 1005.82 1005.89 1006.15 1006.59 1007.18 1007.88 1008.63 1009.41 1010.16 1010.89 1011.59 1012.25 1012.89 1013.51 1014.10 1014.66 1015.18 1015.66 1016.11 1016.53 1016.94 1017.35 1017.76 1018.18 1018.60
1005.30 1005.27 1005.22 1005.22 1005.30 1005.51 1005.84 1006.26 1006.72 1007.14 1007.46 1007.61 1007.57 1007.36 1007.01 1006.59 1006.19 1005.89 1005.77 1005.85 1006.15 1006.65 1007.31 1008.07 1008.90 1009.73 1010.54 1011.31 1012.04 1012.72 1013.37 1013.97 1014.54 1015.06 1015.54 1015.99 1016.41 1016.81 1017.22 1017.64 1018.08 1018.53 1018.98
1004.69 1004.58 1004.48 1004.45 1004.56 1004.84 1005.28 1005.83 1006.43 1006.99 1007.41 1007.62 1007.61 1007.39 1007.01 1006.56 1006.14 1005.83 1005.71 1005.83 1006.18 1006.74 1007.47 1008.30 1009.19 1010.09 1010.96 1011.79 1012.57 1013.29 1013.95 1014.56 1015.11 1015.59 1016.03 1016.42 1016.78 1017.15 1017.53 1017.94 1018.38 1018.84 1019.30
1004.28 1004.14 1004.01 1003.98 1004.12 1004.45 1004.97 1005.61 1006.29 1006.91 1007.37 1007.60 1007.58 1007.34 1006.93 1006.46 1006.02 1005.72 1005.64 1005.80 1006.21 1006.84 1007.63 1008.54 1009.49 1010.46 1011.39 1012.29 1013.12 1013.90 1014.60 1015.23 1015.77 1016.23 1016.62 1016.96 1017.26 1017.56 1017.89 1018.26 1018.68 1019.13 1019.59
1004.23 1004.08 1003.96 1003.95 1004.11 1004.47 1005.01 1005.67 1006.36 1006.96 1007.39 1007.58 1007.50 1007.21 1006.76 1006.27 1005.85 1005.58 1005.54 1005.76 1006.24 1006.93 1007.78 1008.74 1009.75 1010.77 1011.76 1012.72 1013.63 1014.47 1015.24 1015.91 1016.48 1016.94 1017.31 1017.60 1017.85 1018.08 1018.34 1018.66 1019.02 1019.44 1019.89
1004.61 1004.49 1004.40 1004.41 1004.58 1004.94 1005.45 1006.06 1006.68 1007.19 1007.51 1007.59 1007.42 1007.05 1006.56 1006.06 1005.65 1005.42 1005.43 1005.72 1006.25 1006.99 1007.88 1008.87 1009.92 1010.97 1012.02 1013.04 1014.02 1014.94 1015.79 1016.54 1017.16 1017.66 1018.04 1018.31 1018.52 1018.70 1018.90 1019.14 1019.45 1019.81 1020.21
1005.35 1005.30 1005.26 1005.30 1005.48 1005.80 1006.25 1006.76 1007.24 1007.61 1007.77 1007.70 1007.40 1006.94 1006.39 1005.87 1005.47 1005.28 1005.36 1005.69 1006.27 1007.04 1007.95 1008.95 1009.99 1011.06 1012.14 1013.21 1014.25 1015.26 1016.20 1017.04 1017.75 1018.32 1018.74 1019.03 1019.23 1019.39 1019.53 1019.71 1019.95 1020.25 1020.59
1006.33 1006.36 1006.39 1006.47 1006.65 1006.94 1007.30 1007.68 1008.00 1008.18 1008.16 1007.92 1007.49 1006.92 1006.32 1005.78 1005.40 1005.24 1005.36 1005.73 1006.33 1007.11 1008.01 1008.99 1010.01 1011.06 1012.14 1013.23 1014.32 1015.40 1016.43 1017.37 1018.19 1018.85 1019.35 1019.70 1019.93 1020.08 1020.20 1020.34 1020.51 1020.74 1021.02
1007.35 1007.48 1007.58 1007.72 1007.91 1008.16 1008.44 1008.70 1008.86 1008.87 1008.68 1008.28 1007.71 1007.06 1006.40 1005.85 1005.48 1005.36 1005.50 1005.90 1006.50 1007.26 1008.12 1009.05 1010.02 1011.03 1012.07 1013.15 1014.27 1015.39 1016.49 1017.53 1018.45 1019.21 1019.81 1020.24 1020.53 1020.72 1020.84 1020.96 1021.09 1021.26 1021.48
1008.22 1008.44 1008.62 1008.81 1009.03 1009.27 1009.49 1009.66 1009.71 1009.58 1009.26 1008.74 1008.09 1007.37 1006.69 1006.13 1005.78 1005.67 1005.83 1006.23 1006.82 1007.54 1008.35 1009.21 1010.11 1011.05 1012.03 1013.07 1014.16 1015.30 1016.43 1017.53 1018.53 1019.38 1020.08 1020.61 1020.97 1021.22 1021.38 1021.50 1021.62 1021.76 1021.93
1008.80 1009.08 1009.34 1009.58 1009.83 1010.08 1010.29 1010.42 1010.41 1010.22 1009.84 1009.27 1008.58 1007.85 1007.16 1006.62 1006.28 1006.19 1006.36 1006.75 1007.31 1007.99 1008.74 1009.53 1010.34 1011.19 1012.09 1013.06 1014.10 1015.19 1016.31 1017.42 1018.46 1019.38 1020.15 1020.76 1021.22 1021.54 1021.77 1021.92 1022.05 1022.18 1022.32
1009.03 1009.34 1009.64 1009.93 1010.22 1010.50 1010.74 1010.89 1010.89 1010.71 1010.34 1009.79 1009.12 1008.42 1007.78 1007.27 1006.96 1006.89 1007.06 1007.44 1007.98 1008.61 1009.30 1010.02 1010.75 1011.51 1012.31 1013.18 1014.13 1015.14 1016.20 1017.26 1018.29 1019.23 1020.05 1020.73 1021.27 1021.67 1021.97 1022.19 1022.35 1022.49 1022.63
1008.94 1009.24 1009.54 1009.86 1010.20 1010.53 1010.82 1011.03 1011.10 1011.00 1010.70 1010.24 1009.66 1009.03 1008.46 1008.01 1007.74 1007.70 1007.88 1008.26 1008.77 1009.37 1010.01 1010.67 1011.33 1012.00 1012.70 1013.46 1014.29 1015.18 1016.14 1017.12 1018.09 1019.00 1019.83 1020.55 1021.15 1021.63 1022.01 1022.29 1022.51 1022.69 1022.84
Thickness
5784 5785 5782 5780 5778 5776 5774 5773 5773 5772 5771 5770 5769 5768 5768 5767 5767 5766 5766 5765 5765 5765 5764 5764 5764 5764 5764 5763 5762 5762 5762 5761 5761 5760 5759 5758 5757 5755 5754 5753 5752 5751 5750
5789 5785 5782 5779 5777 5775 5773 5772 5771 5770 5769 5768 5767 5766 5766 5765 5764 5764 5763 5763 5763 5763 5763 5762 5762 5762 5761 5761 5760 5760 5760 5759 5759 5758 5758 5756 5755 5754 5753 5751 5750 5749 5748
5789 5785 5781 5778 5776 5774 5772 5771 5769 5768 5767 5766 5765 5765 5764 5763 5762 5762 5761 5761 5761 5761 5761 5760 5760 5759 5759 5758 5758 5758 5758 5758 5757 5756 5755 5754 5753 5752 5751 5750 5748 5747 5746
5788 5784 5781 5778 5775 5773 5771 5769 5768 5767 5766 5765 5764 5762 5761 5761 5760 5760 5759 5759 5759 5759 5758 5758 5758 5757 5756 5756 5756 5756 5757 5757 5756 5754 5753 5752 5752 5750 5749 5748 5747 5746 5744
5786 5783 5780 5777 5774 5772 5769 5768 5766 5765 5764 5763 5762 5761 5760 5759 5758 5757 5757 5757 5757 5757 5756 5756 5755 5755 5754 5753 5753 5754 5755 5755 5755 5753 5751 5750 5750 5749 5748 5746 5745 5744 5743
5784 5781 5778 5776 5773 5770 5768 5767 5765 5763 5762 5761 5759 5758 5758 5757 5756 5755 5755 5756 5756 5755 5754 5754 5753 5753 5752 5752 5751 5752 5753 5754 5753 5751 5749 5748 5747 5746 5746 5744 5743 5742 5741
5782 5779 5777 5774 5771 5769 5767 5765 5763 5762 5760 5759 5757 5757 5756 5755 5754 5754 5754 5756 5756 5755 5753 5752 5751 5750 5750 5749 5749 5750 5750 5750 5749 5748 5746 5746 5745 5745 5743 5742 5741 5740 5739
5781 5778 5775 5772 5770 5767 5765 5763 5761 5760 5758 5757 5756 5755 5754 5753 5752 5752 5754 5755 5756 5755 5752 5751 5749 5748 5748 5747 5747 5747 5747 5747 5746 5745 5744 5743 5743 5742 5741 5740 5739 5738 5737
5779 5775 5773 5770 5767 5765 5764 5761 5759 5758 5757 5755 5754 5753 5751 5751 5750 5751 5752 5754 5754 5753 5751 5749 5747 5746 5745 5745 5745 5744 5744 5744 5743 5742 5741 5740 5740 5740 5739 5738 5737 5736 5735
5775 5773 5770 5768 5765 5764 5762 5760 5758 5756 5754 5753 5752 5750 5749 5748 5748 5749 5750 5750 5750 5750 5749 5748 5746 5745 5744 5743 5743 5742 5741 5741 5740 5740 5739 5739 5738 5738 5737 5736 5735 5734 5733
5771 5769 5768 5766 5764 5762 5760 5758 5756 5753 5752 5751 5749 5748 5747 5746 5746 5746 5747 5747 5747 5747 5746 5745 5744 5742 5742 5741 5740 5739 5738 5737 5737 5737 5736 5736 5736 5736 5735 5734 5733 5732 5732
5767 5767 5765 5764 5762 5760 5759 5757 5754 5752 5750 5749 5747 5746 5744 5744 5744 5744 5744 5744 5744 5743 5743 5742 5741 5739 5739 5738 5737 5736 5735 5734 5734 5734 5733 5734 5734 5734 5733 5733 5731 5731 5730
5768 5766 5764 5763 5762 5760 5757 5755 5752 5750 5748 5747 5746 5744 5742 5742 5741 5741 5741 5740 5740 5740 5739 5738 5737 5736 5735 5735 5734 5733 5732 5731 5731 5731 5731 5731 5732 5731 5731 5731 5730 5729 5729
5766 5765 5764 5762 5761 5759 5757 5754 5751 5749 5747 5745 5744 5742 5740 5740 5739 5738 5737 5737 5736 5736 5735 5734 5733 5733 5732 5732 5731 5731 5730 5729 5729 5729 5729 5729 5729 5729 5729 5728 5728 5727 5727
5765 5764 5763 5761 5759 5757 5755 5752 5750 5747 5745 5743 5742 5740 5739 5738 5737 5736 5735 5734 5733 5732 5732 5731 5730 5730 5729 5729 5728 5728 5727 5727 5726 5726 5726 5727 5727 5727 5727 5726 5726 5726 5725
5764 5763 5762 5760 5758 5756 5754 5751 5748 5746 5744 5742 5740 5739 5737 5736 5735 5733 5732 5731 5730 5729 5729 5728 5727 5726 5726 5725 5725 5725 5725 5724 5724 5724 5724 5724 5724 5724 5724 5724 5724 5724 5723
5764 5762 5760 5759 5757 5754 5752 5749 5746 5744 5742 5740 5739 5737 5736 5735 5733 5731 5729 5728 5728 5727 5726 5725 5724 5723 5723 5723 5722 5722 5722 5721 5721 5721 5721 5721 5721 5721 5722 5721 5721 5721 5721
5763 5761 5758 5758 5755 5752 5750 5747 5745 5743 5740 5738 5737 5736 5734 5733 5731 5729 5728 5726 5726 5724 5723 5722 5721 5720 5720 5719 5718 5718 5718 5718 5718 5718 5718 5718 5719 5719 5719 5719 5719 5718 5718
5762 5759 5755 5754 5752 5750 5747 5745 5742 5740 5738 5737 5736 5734 5733 5731 5729 5728 5726 5725 5723 5722 5721 5720 5719 5718 5716 5715 5715 5715 5714 5715 5715 5716 5716 5716 5716 5716 5716 5716 5716 5715 5715
5759 5756 5753 5751 5749 5747 5743 5741 5738 5736 5735 5734 5734 5733 5731 5729 5727 5726 5724 5723 5722 5720 5719 5718 5716 5715 5714 5713 5713 5712 5711 5712 5713 5713 5713 5713 5713 5713 5713 5712 5712 5712 5712
5754 5751 5748 5746 5744 5742 5738 5736 5733 5731 5731 5730 5731 5730 5729 5727 5726 5724 5722 5721 5720 5718 5717 5716 5714 5711 5710 5710 5708 5706 5707 5708 5709 5710 5710 5710 5710 5710 5709 5709 5709 5709 5709
5746 5744 5742 5740 5739 5738 5736 5733 5731 5729 5727 5727 5727 5727 5726 5725 5723 5722 5720 5718 5717 5716 5714 5713 5712 5709 5707 5707 5705 5701 5698 5700 5704 5707 5707 5707 5707 5707 5707 5706 5706 5707 5706
5740 5737 5737 5735 5734 5733 5732 5729 5726 5724 5723 5721 5721 5722 5722 5721 5720 5719 5718 5716 5715 5714 5712 5711 5710 5707 5704 5703 5704 5701 5695 5692 5695 5700 5702 5703 5703 5703 5703 5703 5704 5704 5704
5736 5733 5732 5730 5729 5729 5727 5725 5722 5719 5716 5717 5717 5718 5718 5717 5716 5715 5715 5714 5712 5712 5710 5709 5708 5706 5704 5700 5700 5700 5700 5697 5693 5692 5696 5698 5699 5699 5700 5701 5701 5700 5701
5731 5728 5726 5725 5723 5722 5722 5720 5719 5716 5714 5714 5713 5713 5713 5713 5712 5711 5711 5710 5710 5709 5708 5707 5705 5704 5702 5700 5698 5697 5696 5694 5693 5690 5688 5691 5693 5695 5697 5697 5697 5697 5698
5724 5722 5720 5719 5716 5716 5715 5715 5713 5711 5710 5708 5708 5708 5708 5708 5708 5707 5707 5706 5706 5705 5705 5704 5703 5701 5700 5698 5697 5696 5694 5692 5690 5689 5687 5686 5687 5690 5693 5694 5694 5695 5695